Regional Weather Roundup
Issued by NWS New Orleans/Baton Rouge, LA

Home | Current Version | Previous Version | Text Only | Print | Product List | Glossary Off
Versions: 1 2 3 4 5 6 7 8 9 10 11 12 13 14 15 16 17 18 19 20 21 22 23 24 25 26 27 28 29 30 31 32 33 34 35 36 37 38 39 40 41 42 43 44 45 46 47 48 49 50

687
ASUS44 KLIX 280111
RWRLIX
NEW ORLEANS REGIONAL WEATHER ROUNDUP
NATIONAL WEATHER SERVICE NEW ORLEANS LA
800 PM CDT FRI MAR 27 2015

NOTE: "FAIR" INDICATES FEW OR NO CLOUDS BELOW 12,000 FEET WITH NO
      SIGNIFICANT WEATHER AND/OR OBSTRUCTIONS TO VISIBILITY.
      SKY/WX - SKY CONDITION AND SIGNIFICANT WEATHER.
      TMP - AIR TEMPERATURE.     DP    - DEWPOINT TEMPERATURE.
      RH  - RELATIVE HUMIDITY.   PRES  - PRESSURE.
      HI  - HEAT INDEX.          WCI   - WIND CHILL INDEX.

*  THESE STATIONS ARE NOT NWS OR FAA STATIONS AND ARE NOT UNDER
   NWS QUALITY CONTROL.

LAZ038-040-048-061>063-065>067-069-280200-
SOUTHEAST LOUISIANA

CITY           SKY/WX    TMP DP  RH WIND       PRES   REMARKS
N.O. AUDUBON     N/A     64 N/A N/A MISG        N/A
N.O. INTL ARPT PTCLDY    63  41  44 NW7       30.04R
N.O. LAKEFRONT CLEAR     68  44  42 NW16      30.05R
SLIDELL        CLEAR     61  40  45 N3        30.04R
BATON ROUGE    CLEAR     62  42  47 NW3       30.03R
BOOTHVILLE     CLEAR     61  46  57 W7        30.05R
BELLE CHASSE   PTCLDY    62  38  40 CALM      30.04R
BOGALUSA*        N/A     59  37  43 N6        30.06R
GALLIANO*      CLEAR     57  51  80 CALM      30.05R
NEW ROADS*       N/A     63  42  45 NW7       30.05R
GONZALES*        N/A     60  47  60 CALM      30.04R
HAMMOND*       CLEAR     59  41  51 CALM      30.05S
HOUMA*         CLEAR     59  44  55 CALM      30.05R
PORT FOURCHON* NOT AVBL

$$

MSZ070-080>082-280200-
SOUTHERN MISSISSIPPI

CITY           SKY/WX    TMP DP  RH WIND       PRES   REMARKS
MCCOMB         CLEAR     58  38  47 N8        30.06R
GULFPORT       CLEAR     62  36  37 N7        30.03R
BILOXI         CLEAR     62  37  39 N8        30.03R
PASCAGOULA     CLEAR     59  35  40 N10       30.04R
STENNIS ARPT*  CLEAR     59  32  36 N5        30.04R

$$

COASTAL OBSERVATIONS
LAKE AND NEARSHORE STATIONS

STATION/POSITION TIME  TEMP    WIND        PRES    WAVE
                       AIR SEA DIR/SP/G            HT/PER
                 (UTC) (F)     (DEG/KT/KT) (MB)    (FT/S)
PASCAGOULA       0000   65     330/ 10/ 18 1015.6
WAVELAND YACHT   0006   66 68  350/ 13/ 16 1016.1
GRAND ISLE       0000   68 69  310/ 16/ 19 1016.5
SOUTHWEST PASS   0000   62 53  290/  6/  9 1017.7
NEW CANAL        0000          290/  5/ 12 1017.1
SHELL BEACH      0018   67 69  310/ 22/ 25 1016.6

OFFSHORE STATIONS

STATION/POSITION TIME  TEMP    WIND        PRES    WAVE
                       AIR SEA DIR/SP/G            HT/PER
                 (UTC) (F)     (DEG/KT/KT) (MB)    (FT/S)
64 S DAUPHIN ISL 0050   65 71  300/ 16/ 19 1017.0    4/ 5

$$




USA.gov is the U.S. government's official web portal to all federal, state and local government web resources and services.